Location: Unspecified
(51.3762°N, 0.0000°E)
Time: 15:37:09
(UTC+00:00)

O/OREOS (USA 219) - Pass Details

Date: 27 July 2019
Orbit: 621 x 646 km, 72.0° (Epoch: 22 May)

Event Time Altitude Azimuth Distance (km) Brightness Sun altitude
Exits shadow 02:20:51 - 164° (SSE) 2,096 ? -13.5°
Reaches altitude 10° 02:21:03 10° 163° (SSE) 2,028 ? -13.4°
Maximum altitude 02:24:53 27° 105° (ESE) 1,216 ? -13.1°
Drops below altitude 10° 02:28:44 10° 48° (NE) 2,029 ? -12.8°
Sets 02:31:15 0° 37° (NE) 2,938 ? -12.6°
